CW2789 Weather Reports


Display with metric or nautical units.
time (UTC)temp
F
wind
direction
speed
MPH
gust
MPH
rain 1hr
in
rain 24hr
in
rain mn
in
humidity
%
barometer
mb
20200807212626 85 48 0.0 0.0 0.00 0.00 0.00 33 1011.9
20200807211636 84 48 0.0 2.0 0.00 0.00 0.00 33 1011.9
20200807210615 83 99 0.0 4.0 0.00 0.00 0.00 34 1012.0
20200807205606 82 240 0.0 0.0 0.00 0.00 0.00 36 1012.1
20200807204615 82 64 0.0 4.0 0.00 0.00 0.00 38 1012.1
20200807203619 81 109 0.0 4.0 0.00 0.00 0.00 38 1012.3
20200807202611 80 106 0.0 1.0 0.00 0.00 0.00 41 1012.5
20200807201559 79 69 0.0 2.0 0.00 0.00 0.00 42 1012.5
20200807200537 78 93 1.0 0.0 0.00 0.00 0.00 43 1012.6
20200807195533 79 167 1.0 7.0 0.00 0.00 0.00 43 1012.7
20200807194544 78 162 1.0 5.0 0.00 0.00 0.00 43 1012.7
20200807193549 77 47 0.0 4.0 0.00 0.00 0.00 45 1012.8
20200807192536 76 45 0.0 8.0 0.00 0.00 0.00 47 1012.7
20200807191533 75 55 0.0 5.0 0.00 0.00 0.00 47 1012.7
20200807190550 74 136 1.0 5.0 0.00 0.00 0.00 50 1013.0
20200807185607 74 155 2.0 8.0 0.00 0.00 0.00 51 1013.1
20200807184553 73 102 2.0 6.0 0.00 0.00 0.00 52 1013.1
20200807183533 73 99 1.0 6.0 0.00 0.00 0.00 53 1013.1
20200807182538 71 71 2.0 10.0 0.00 0.00 0.00 55 1013.1
20200807181514 71 99 2.0 10.0 0.00 0.00 0.00 56 1013.1
20200807180515 70 85 2.0 7.0 0.00 0.00 0.00 58 1013.1
20200807175518 70 117 2.0 11.0 0.00 0.00 0.00 58 1013.1
20200807174540 69 138 3.0 11.0 0.00 0.00 0.00 59 1013.1
20200807173534 68 127 3.0 9.0 0.00 0.00 0.00 61 1013.2
20200807172503 68 123 4.0 11.0 0.00 0.00 0.00 61 1013.2
20200807171505 67 73 3.0 13.0 0.00 0.00 0.00 64 1013.2
20200807170502 66 133 4.0 13.0 0.00 0.00 0.00 64 1013.1
20200807165518 66 123 2.0 9.0 0.00 0.00 0.00 65 1013.1
20200807164520 65 78 3.0 7.0 0.00 0.00 0.00 68 1013.1
20200807163520 64 102 3.0 7.0 0.00 0.00 0.00 69 1013.2
20200807162523 64 126 3.0 7.0 0.00 0.00 0.00 70 1013.2
20200807161509 63 124 3.0 9.0 0.00 0.00 0.00 71 1013.2
20200807160526 63 131 3.0 9.0 0.00 0.00 0.00 72 1013.2
20200807155528 63 155 3.0 7.0 0.00 0.00 0.00 74 1013.2
20200807154515 62 137 3.0 10.0 0.00 0.00 0.00 75 1013.2
20200807153540 62 133 4.0 10.0 0.00 0.00 0.00 76 1013.3
20200807152531 61 160 4.0 10.0 0.00 0.00 0.00 77 1013.2
20200807151518 61 113 2.0 7.0 0.00 0.00 0.00 78 1013.2
20200807150521 60 162 2.0 7.0 0.00 0.00 0.00 80 1013.2
20200807145457 59 114 0.0 0.0 0.00 0.00 0.00 82 1013.0
20200807144454 58 120 0.0 7.0 0.00 0.00 0.00 84 1013.0
20200807143447 57 131 0.0 7.0 0.00 0.00 0.00 86 1013.0
20200807142446 56 133 0.0 0.0 0.00 0.00 0.00 88 1012.8
20200807141446 56 164 0.0 0.0 0.00 0.00 0.00 88 1012.8
20200807140443 55 165 0.0 0.0 0.00 0.00 0.00 88 1012.7
20200807135437 54 165 0.0 0.0 0.00 0.00 0.00 87 1012.7
20200807134417 54 165 0.0 0.0 0.00 0.00 0.00 87 1012.7
20200807133440 54 165 0.0 0.0 0.00 0.00 0.00 87 1012.7
20200807132421 55 165 0.0 0.0 0.00 0.00 0.00 87 1012.4
20200807131430 55 165 0.0 0.0 0.00 0.00 0.00 87 1012.4
20200807130439 55 165 0.0 0.0 0.00 0.00 0.00 87 1012.2
20200807125412 55 161 0.0 0.0 0.00 0.00 0.00 87 1012.2
20200807124347 55 123 0.0 0.0 0.00 0.00 0.00 86 1012.1
20200807123342 55 176 0.0 0.0 0.00 0.00 0.00 86 1012.1
20200807122339 54 296 0.0 0.0 0.00 0.00 0.00 84 1012.1
20200807121356 54 296 0.0 0.0 0.00 0.00 0.00 84 1012.1
20200807120337 54 296 0.0 0.0 0.00 0.00 0.00 84 1012.1
20200807115336 55 296 0.0 0.0 0.00 0.00 0.00 83 1012.0
20200807114352 55 296 0.0 0.0 0.00 0.00 0.00 83 1012.0
20200807113356 55 296 0.0 0.0 0.00 0.00 0.00 83 1012.0
20200807112340 55 296 0.0 0.0 0.00 0.00 0.00 82 1012.1
20200807111357 55 296 0.0 0.0 0.00 0.00 0.00 81 1012.0
20200807110412 55 296 0.0 0.0 0.00 0.00 0.00 81 1012.0
20200807105340 56 296 0.0 0.0 0.00 0.00 0.00 81 1012.0
20200807104331 56 296 0.0 0.0 0.00 0.00 0.00 80 1012.0
20200807103350 56 296 0.0 0.0 0.00 0.00 0.00 79 1012.0
20200807102401 56 296 0.0 0.0 0.00 0.00 0.00 79 1012.0
20200807101330 57 296 0.0 0.0 0.00 0.00 0.00 79 1012.0
20200807100328 57 296 0.0 0.0 0.00 0.00 0.00 78 1012.0
20200807095353 57 296 0.0 0.0 0.00 0.00 0.00 77 1012.0
20200807094411 57 296 0.0 0.0 0.00 0.00 0.00 77 1012.0
20200807093354 57 296 0.0 0.0 0.00 0.00 0.00 78 1012.1
20200807092415 58 296 0.0 0.0 0.00 0.00 0.00 78 1012.1
20200807091403 58 296 0.0 0.0 0.00 0.00 0.00 78 1012.2
20200807090334 58 296 0.0 0.0 0.00 0.00 0.00 77 1012.2
20200807085309 58 296 0.0 0.0 0.00 0.00 0.00 77 1012.4
20200807084322 59 296 0.0 0.0 0.00 0.00 0.00 77 1012.5
20200807083327 59 296 0.0 0.0 0.00 0.00 0.00 77 1012.5
20200807082352 59 296 0.0 0.0 0.00 0.00 0.00 76 1012.5
20200807081410 60 296 0.0 0.0 0.00 0.00 0.00 75 1012.6
20200807080406 60 296 0.0 0.0 0.00 0.00 0.00 75 1012.6
20200807075419 60 296 0.0 0.0 0.00 0.00 0.00 74 1012.6
20200807074434 60 296 0.0 0.0 0.00 0.00 0.00 74 1012.6
20200807073419 61 296 0.0 0.0 0.00 0.00 0.00 74 1012.7
20200807072354 61 296 0.0 0.0 0.00 0.00 0.00 74 1013.0
20200807071338 61 298 0.0 0.0 0.00 0.00 0.00 73 1013.1
20200807065347 62 304 0.0 0.0 0.00 0.00 0.00 73 1013.1
20200807064319 62 312 0.0 0.0 0.00 0.00 0.00 72 1013.1
20200807063306 62 315 0.0 0.0 0.00 0.00 0.00 71 1013.1
20200807062321 63 315 0.0 0.0 0.00 0.00 0.00 70 1013.1
20200807061254 63 315 0.0 0.0 0.00 0.00 0.00 70 1013.1
20200807060243 63 315 0.0 0.0 0.00 0.00 0.00 69 1013.1
20200807055224 63 315 0.0 0.0 0.00 0.00 0.00 69 1013.1
20200807054152 64 315 0.0 0.0 0.00 0.00 0.00 69 1013.1
20200807053150 64 315 0.0 0.0 0.00 0.00 0.00 67 1013.1
20200807052116 65 315 0.0 0.0 0.00 0.00 0.00 65 1013.1
20200807051045 65 315 0.0 0.0 0.00 0.00 0.00 65 1013.1
20200807050037 66 315 0.0 0.0 0.00 0.00 0.00 65 1013.1
20200807045023 66 315 0.0 0.0 0.00 0.00 0.00 65 1013.1
20200807044040 66 315 0.0 0.0 0.00 0.00 0.00 64 1012.9
20200807043047 67 315 0.0 0.0 0.00 0.00 0.00 63 1012.9
20200807042033 67 315 0.0 0.0 0.00 0.00 0.00 63 1012.8
20200807041018 68 315 0.0 0.0 0.00 0.00 0.00 62 1012.8
20200807040006 68 322 0.0 0.0 0.00 0.00 0.00 62 1012.8
20200807035010 69 0 0.0 0.0 0.00 0.00 0.00 62 1012.6
20200807034026 69 54 0.0 0.0 0.00 0.00 0.00 61 1012.5